Wind_Speed
16 17 18 17 16 16 15 15 15 16 17 17 16 16 16 16 16 17 17 18 19 20 20 19 19 19 19 20 21 21 22 22 22 23 24 25 26 27 27 28 28 28 29
16 17 17 16 16 16 16 15 16 17 17 17 17 17 17 16 17 17 17 19 20 20 19 19 20 20 20 20 21 22 22 22 22 22 23 24 25 26 27 28 29 29 29
16 16 16 17 16 16 15 16 17 18 18 18 18 17 17 18 18 19 19 19 19 18 19 19 20 20 21 21 21 22 22 22 23 23 24 24 24 26 26 26 28 29 29
16 16 17 16 16 17 16 16 17 18 18 19 19 18 18 19 19 19 19 18 17 18 18 19 19 19 20 20 21 21 22 23 23 23 24 24 24 25 26 27 27 28 29
17 17 17 17 17 17 17 17 18 18 18 19 19 19 19 19 19 18 17 17 17 18 18 17 19 20 21 20 21 21 22 23 24 24 24 25 25 25 26 27 27 28 29
16 16 17 18 18 18 17 18 19 19 20 20 20 19 19 19 18 18 18 18 18 18 18 19 19 20 21 21 21 21 21 22 22 24 25 26 26 25 27 28 29 29 29
16 16 17 18 19 19 19 19 19 20 20 20 19 19 19 18 18 18 18 18 18 18 19 19 19 20 20 20 20 20 21 21 21 23 24 25 25 25 26 28 29 30 30
17 17 18 18 18 20 20 20 19 19 19 19 19 19 17 17 17 18 17 17 18 18 18 19 19 19 20 20 20 20 20 20 21 22 23 23 24 24 25 27 28 30 31
17 18 18 19 18 19 20 19 19 19 19 19 19 18 17 17 18 18 17 18 17 18 18 19 19 19 20 20 20 20 20 21 21 21 22 23 24 25 25 26 27 29 30
17 18 19 20 20 20 20 19 19 18 18 19 19 17 17 18 18 18 19 18 18 18 18 18 18 19 20 20 20 20 20 20 20 21 22 23 24 24 26 27 27 28 29
17 18 19 19 19 19 19 19 19 18 18 19 18 18 18 18 18 19 19 18 18 18 18 18 18 19 19 19 20 20 20 20 20 21 22 23 24 24 25 25 26 27 28
18 18 18 18 18 19 19 19 19 19 19 19 18 18 18 18 19 19 19 18 17 17 17 17 17 17 18 19 19 20 20 20 20 20 21 21 23 24 25 25 26 26 27
18 17 17 17 18 18 19 19 19 19 19 19 19 19 19 18 19 19 19 19 18 17 17 16 17 18 18 19 19 19 18 18 19 19 19 20 20 21 23 23 24 25 26
17 17 17 18 18 19 20 20 19 19 19 19 19 18 18 18 19 19 19 19 18 17 16 17 18 18 19 18 18 18 17 18 18 19 18 19 19 20 22 22 23 24 25
17 17 17 17 19 20 20 19 19 19 19 19 18 17 17 17 18 18 18 18 17 16 16 17 18 18 17 17 18 18 18 18 18 18 18 18 19 20 21 21 22 23 24
17 17 17 18 19 20 20 20 20 20 20 19 18 18 18 18 18 18 17 17 16 16 17 17 17 18 18 18 18 18 18 18 18 17 17 18 19 20 21 21 22 23 24
17 17 18 18 19 20 20 20 20 19 19 19 19 19 18 18 18 17 17 17 18 18 18 18 18 18 18 18 19 18 18 18 17 16 17 18 19 19 20 21 22 22 23
17 17 18 18 19 20 20 20 20 19 19 19 19 19 19 18 17 17 17 18 18 18 18 19 18 19 19 19 19 19 19 19 18 17 17 18 18 18 19 20 20 21 21
18 18 18 19 19 19 19 19 19 19 19 19 20 20 20 18 18 18 18 18 19 19 19 19 19 20 20 20 20 19 19 18 17 17 18 18 18 18 18 18 20 20 21
18 18 18 19 19 19 19 18 19 19 19 20 20 20 20 19 18 18 19 19 19 20 20 20 20 21 21 20 19 19 18 18 18 18 18 18 18 18 17 18 19 19 20
18 18 18 19 19 19 19 19 19 20 20 21 20 21 20 19 19 19 20 20 20 21 21 21 21 21 21 20 19 19 18 18 18 18 18 17 17 17 17 18 18 18 19
19 18 19 19 19 20 19 19 20 20 21 21 21 21 21 21 20 20 20 21 21 22 22 22 22 21 21 20 20 19 19 19 18 18 18 18 18 18 18 18 18 19 20
19 19 19 20 20 20 19 20 20 20 20 21 22 22 22 22 21 21 21 22 22 22 22 22 22 21 20 20 19 19 19 19 19 18 18 19 19 19 19 19 19 19 20
20 20 20 20 20 20 20 20 20 20 21 21 21 22 23 23 22 22 21 21 22 22 22 22 21 20 19 19 19 19 19 19 19 20 20 20 20 21 20 20 20 20 20
21 21 21 21 21 21 21 22 21 22 22 22 23 23 23 23 22 22 22 22 22 22 22 21 20 20 19 19 19 19 20 20 21 21 21 21 21 22 22 21 21 21 21
22 22 22 22 22 22 22 22 22 22 23 23 23 23 23 23 23 22 22 22 22 22 22 21 21 20 20 20 20 21 21 21 22 22 22 22 22 22 22 22 21 21 21
Wind_Direction
328 326 324 326 328 326 324 320 319 318 316 315 312 309 308 305 297 292 289 288 285 282 280 279 282 281 278 276 275 271 267 265 262 260 255 251 250 249 249 249 249 249 248
327 324 322 325 325 326 324 321 320 319 317 314 312 309 308 307 302 296 292 290 288 284 285 285 283 282 280 277 277 273 269 265 262 260 256 253 251 249 249 249 248 249 249
327 328 325 326 325 324 322 322 323 320 317 314 313 311 309 308 305 302 300 298 294 289 290 288 287 284 282 280 278 275 269 265 263 260 258 255 252 252 250 249 248 248 249
330 329 328 329 328 326 327 326 324 323 321 318 315 312 310 307 306 306 304 301 297 293 291 289 287 287 286 283 281 276 271 268 266 263 260 258 255 252 249 249 250 251 250
325 328 330 329 326 325 326 326 326 325 323 321 318 312 309 307 306 304 304 304 303 300 297 293 290 289 288 285 283 279 275 271 268 266 263 261 256 253 251 250 251 252 252
323 328 329 329 326 326 326 326 328 327 326 323 321 317 312 309 306 303 303 302 300 299 297 296 293 292 290 287 284 281 278 275 271 268 264 262 258 253 254 252 253 253 253
325 326 328 328 329 329 327 327 326 325 325 325 321 320 318 314 309 305 304 301 300 300 300 297 297 296 293 291 287 284 282 277 274 271 267 264 260 257 256 255 255 254 254
323 322 324 327 327 328 329 328 326 325 326 326 325 323 321 319 316 313 310 306 304 302 301 299 298 298 296 293 288 286 284 281 277 274 269 265 262 260 259 258 257 255 254
321 323 326 326 326 328 329 329 327 326 325 326 326 325 323 321 320 318 314 310 306 303 303 301 300 300 298 295 290 289 287 285 280 276 271 268 266 263 262 261 260 258 256
318 321 325 327 327 327 327 328 328 327 326 326 327 326 326 326 322 320 318 313 307 305 305 305 304 303 302 299 295 293 289 287 284 279 274 272 269 266 265 263 261 260 258
316 319 322 325 325 326 326 325 327 326 324 325 327 327 325 324 324 323 321 316 310 308 308 308 307 307 306 304 302 298 293 290 287 283 279 275 271 267 267 265 262 261 259
318 320 320 324 325 327 327 327 326 327 324 324 325 325 324 324 325 324 323 319 315 313 312 312 313 314 313 310 307 302 297 293 290 287 284 279 273 269 268 267 263 262 262
318 322 324 326 327 328 328 327 326 326 326 324 323 323 323 323 325 324 322 321 318 316 314 313 313 315 315 312 309 306 304 300 296 292 287 282 278 273 270 267 264 263 262
319 322 325 325 326 331 331 328 328 327 325 324 322 322 322 322 324 324 323 322 321 319 317 315 314 315 316 315 313 311 308 305 300 294 288 283 281 278 274 271 269 267 265
322 324 325 327 329 332 331 329 330 329 328 327 324 322 323 322 323 324 324 324 323 322 320 318 316 315 315 315 314 311 309 305 301 295 289 285 281 280 277 274 272 270 267
318 321 323 325 327 329 331 331 331 329 329 328 326 323 321 321 322 325 328 327 326 324 322 322 321 318 316 315 315 314 312 308 303 298 292 291 287 283 281 279 276 274 269
314 316 319 322 325 327 329 331 332 331 332 330 328 325 322 321 322 324 324 325 325 324 323 323 321 321 320 319 317 315 313 310 308 301 296 295 292 288 284 281 279 277 272
309 312 315 318 321 325 327 327 329 329 330 330 328 326 323 322 322 322 322 322 323 324 324 323 321 320 320 320 320 317 314 310 306 303 300 299 296 292 287 284 281 280 275
303 306 312 316 318 322 324 325 326 325 325 327 328 327 325 321 320 321 320 321 323 323 323 323 321 320 319 318 318 318 315 311 308 305 303 302 300 297 293 289 286 283 278
300 304 311 315 315 319 322 324 326 325 323 324 326 326 326 322 319 320 319 320 321 321 321 321 320 320 320 318 317 317 316 314 312 310 308 306 302 300 298 294 291 288 284
298 302 308 311 313 316 319 322 323 323 322 321 322 323 324 322 318 318 316 316 317 318 319 319 319 320 320 319 319 318 317 315 314 311 309 307 305 304 303 300 295 292 290
293 297 303 308 312 315 317 319 321 321 320 319 319 320 320 320 317 314 314 314 315 316 316 316 317 317 318 318 318 318 319 318 316 313 310 308 307 306 302 300 297 295 294
293 297 300 304 308 310 312 314 317 318 318 318 318 318 318 318 317 315 315 313 313 314 314 313 314 315 315 316 316 316 315 315 316 315 313 311 311 309 304 299 298 297 295
290 294 297 301 304 305 308 311 313 314 314 313 315 317 317 317 317 316 314 313 313 315 316 317 316 316 317 317 317 316 316 316 316 317 315 313 311 310 307 302 297 296 295
287 289 293 297 300 303 304 308 310 313 314 314 315 316 317 317 317 316 315 313 313 314 314 315 314 314 315 315 316 316 315 315 314 315 315 314 312 309 307 303 299 296 295
285 288 291 294 297 301 305 307 309 311 312 313 314 313 315 315 315 314 314 312 311 310 311 313 313 313 314 314 314 315 315 315 315 314 315 314 312 310 307 304 301 298 297
Height
5848 5846 5843 5839 5836 5833 5831 5828 5826 5823 5820 5818 5816 5813 5811 5810 5808 5806 5804 5803 5802 5800 5799 5798 5797 5796 5796 5795 5794 5793 5792 5792 5792 5792 5792 5793 5794 5796 5797 5798 5799 5801 5802
5846 5843 5840 5837 5834 5830 5828 5825 5822 5820 5817 5814 5811 5809 5807 5805 5803 5801 5799 5798 5796 5794 5793 5792 5791 5790 5789 5788 5787 5786 5785 5785 5785 5785 5786 5787 5788 5789 5790 5791 5792 5793 5795
5843 5841 5838 5835 5832 5829 5825 5823 5819 5816 5813 5810 5807 5805 5803 5800 5798 5796 5794 5792 5790 5789 5787 5786 5785 5784 5783 5782 5780 5779 5779 5779 5779 5778 5779 5780 5781 5782 5783 5784 5785 5786 5787
5841 5838 5835 5832 5829 5826 5823 5820 5816 5813 5810 5806 5803 5801 5798 5796 5794 5791 5789 5787 5785 5784 5782 5780 5779 5778 5776 5775 5774 5772 5772 5772 5772 5771 5771 5772 5773 5774 5775 5776 5777 5778 5779
5838 5835 5832 5829 5827 5824 5820 5816 5813 5809 5806 5802 5799 5796 5794 5792 5789 5787 5785 5783 5781 5779 5776 5775 5773 5772 5770 5769 5767 5766 5765 5764 5764 5764 5764 5764 5765 5766 5767 5769 5770 5770 5772
5835 5832 5830 5827 5823 5820 5816 5812 5809 5805 5802 5798 5795 5792 5790 5787 5785 5783 5780 5778 5776 5774 5771 5770 5768 5766 5764 5762 5761 5759 5758 5757 5757 5756 5756 5756 5757 5758 5759 5760 5761 5762 5763
5832 5829 5827 5824 5820 5816 5812 5808 5805 5802 5798 5795 5791 5788 5785 5783 5780 5778 5776 5773 5771 5769 5767 5764 5762 5760 5758 5756 5755 5753 5752 5750 5750 5749 5749 5748 5749 5750 5751 5752 5753 5754 5755
5829 5826 5824 5820 5817 5813 5808 5805 5802 5798 5795 5791 5788 5784 5781 5778 5776 5773 5771 5768 5766 5764 5761 5759 5757 5755 5752 5751 5749 5747 5745 5744 5743 5742 5742 5741 5741 5742 5742 5743 5744 5745 5746
5825 5823 5820 5817 5813 5809 5806 5802 5798 5795 5791 5788 5784 5781 5778 5775 5772 5769 5766 5764 5761 5759 5756 5754 5752 5749 5747 5745 5743 5741 5739 5738 5736 5735 5735 5734 5734 5734 5734 5735 5735 5737 5737
5822 5819 5816 5813 5810 5806 5802 5799 5795 5791 5788 5785 5781 5777 5774 5771 5768 5765 5762 5759 5757 5754 5752 5749 5747 5744 5742 5739 5737 5735 5733 5731 5730 5729 5728 5727 5727 5726 5726 5726 5727 5727 5728
5819 5816 5813 5810 5806 5803 5799 5796 5792 5789 5785 5781 5778 5774 5771 5768 5765 5762 5758 5755 5752 5750 5747 5745 5742 5740 5737 5734 5731 5729 5727 5725 5724 5722 5721 5720 5719 5719 5719 5718 5718 5719 5719
5814 5812 5809 5806 5803 5799 5796 5792 5789 5785 5782 5778 5775 5771 5768 5765 5762 5758 5755 5752 5749 5746 5743 5741 5738 5735 5732 5729 5727 5724 5722 5719 5717 5716 5714 5713 5712 5711 5711 5711 5711 5711 5711
5811 5808 5806 5803 5800 5796 5793 5789 5786 5782 5778 5775 5771 5768 5765 5762 5758 5755 5751 5748 5745 5742 5739 5737 5734 5731 5728 5725 5722 5719 5716 5714 5711 5709 5707 5706 5704 5704 5703 5703 5702 5702 5702
5807 5805 5803 5799 5796 5793 5790 5786 5783 5779 5775 5772 5768 5765 5762 5758 5755 5752 5748 5745 5742 5739 5736 5733 5730 5727 5724 5721 5718 5714 5712 5709 5706 5704 5701 5700 5698 5697 5696 5696 5695 5694 5694
5805 5802 5800 5797 5794 5791 5787 5783 5780 5776 5772 5769 5765 5762 5759 5755 5752 5749 5745 5742 5739 5736 5733 5730 5727 5723 5720 5717 5713 5710 5707 5704 5701 5698 5696 5694 5692 5691 5690 5689 5688 5687 5686
5802 5800 5797 5794 5791 5788 5784 5780 5777 5773 5769 5765 5762 5759 5756 5753 5749 5746 5742 5739 5736 5733 5730 5726 5723 5719 5716 5713 5709 5705 5702 5699 5696 5693 5691 5688 5686 5684 5683 5681 5680 5679 5679
5798 5796 5794 5791 5788 5785 5781 5778 5774 5770 5766 5763 5759 5756 5753 5749 5746 5743 5739 5736 5733 5729 5726 5722 5719 5716 5712 5708 5705 5701 5697 5694 5691 5688 5686 5683 5680 5678 5676 5675 5673 5672 5671
5795 5793 5790 5788 5785 5782 5778 5775 5771 5767 5764 5760 5757 5753 5750 5746 5743 5740 5736 5733 5729 5726 5722 5719 5715 5712 5708 5704 5700 5697 5693 5690 5686 5683 5681 5678 5675 5673 5670 5668 5667 5666 5665
5790 5788 5786 5784 5781 5778 5775 5772 5768 5765 5761 5757 5754 5750 5746 5743 5740 5736 5733 5730 5726 5723 5719 5715 5712 5708 5704 5700 5696 5692 5688 5685 5682 5679 5675 5673 5670 5667 5665 5663 5661 5659 5658
5786 5784 5782 5780 5777 5774 5771 5768 5765 5761 5758 5754 5750 5747 5743 5740 5736 5733 5729 5726 5723 5719 5716 5712 5708 5704 5700 5695 5691 5688 5684 5681 5678 5674 5671 5668 5665 5662 5660 5658 5656 5654 5652
5781 5780 5778 5776 5773 5770 5767 5764 5761 5757 5754 5750 5747 5744 5740 5736 5733 5729 5726 5722 5719 5715 5711 5707 5703 5699 5695 5691 5687 5684 5680 5677 5673 5670 5667 5663 5661 5658 5655 5653 5651 5648 5647
5776 5775 5773 5771 5768 5766 5763 5760 5757 5754 5750 5747 5743 5740 5736 5732 5729 5725 5722 5718 5714 5711 5707 5703 5699 5695 5691 5687 5683 5679 5676 5672 5669 5666 5662 5659 5656 5654 5651 5648 5646 5643 5641
5771 5769 5767 5766 5764 5761 5758 5756 5753 5749 5746 5743 5739 5735 5732 5728 5724 5720 5717 5713 5710 5706 5702 5698 5695 5691 5687 5683 5679 5676 5672 5669 5665 5662 5658 5655 5651 5648 5646 5643 5640 5638 5635
5765 5763 5762 5760 5758 5756 5753 5750 5748 5745 5741 5738 5734 5730 5727 5723 5719 5715 5712 5708 5704 5701 5697 5693 5690 5686 5683 5679 5675 5672 5668 5665 5661 5657 5654 5650 5647 5643 5640 5637 5635 5632 5629
5758 5757 5755 5754 5752 5750 5747 5745 5742 5739 5736 5733 5729 5725 5722 5718 5714 5710 5707 5703 5700 5696 5692 5689 5685 5682 5679 5675 5671 5667 5664 5660 5657 5653 5649 5645 5642 5638 5635 5632 5629 5626 5624
5751 5749 5748 5747 5745 5743 5741 5738 5736 5734 5731 5728 5724 5720 5717 5713 5709 5705 5702 5698 5694 5691 5687 5684 5680 5677 5674 5670 5666 5662 5659 5655 5651 5647 5644 5640 5636 5633 5629 5626 5623 5620 5617